EW3230 Weather Reports


time (UTC)temp
F
wind
direction
speed
knots
gust
knots
rain 1hr
in
rain 24hr
in
rain mn
in
humidity
%
barometer
mb
20260906190433 67 77 1.7 7.0 0.00 0.02 0.02 71 1014.6
20260906185933 67 73 2.6 7.0 0.00 0.02 0.02 70 1014.6
20260906185547 67 80 1.7 6.1 0.00 0.02 0.02 70 1014.7
20260906183431 68 66 1.7 7.0 0.00 0.02 0.02 69 1014.7
20260906182425 68 62 1.7 6.1 0.00 0.02 0.02 69 1014.8
20260906181923 67 72 1.7 7.0 0.00 0.02 0.02 70 1014.9
20260906180423 68 149 1.7 5.2 0.00 0.02 0.02 69 1014.8
20260906175422 67 165 2.6 7.8 0.00 0.02 0.02 69 1014.8
20260906174422 67 101 1.7 9.6 0.00 0.02 0.02 69 1015.0
20260906173924 67 279 1.7 7.8 0.00 0.02 0.02 70 1014.9
20260906172424 68 56 2.6 7.8 0.00 0.02 0.02 69 1015.0
20260906171421 67 75 2.6 9.6 0.00 0.02 0.02 70 1015.0
20260906170420 67 82 3.5 9.6 0.00 0.02 0.02 70 1015.0
20260906165418 67 255 2.6 7.8 0.00 0.02 0.02 69 1015.1
20260906164414 67 354 3.5 10.4 0.00 0.02 0.02 70 1015.0
20260906163415 67 61 2.6 8.7 0.00 0.02 0.02 69 1015.1
20260906162914 67 56 2.6 7.8 0.00 0.02 0.02 68 1015.2
20260906161414 67 65 0.9 7.0 0.00 0.02 0.02 68 1015.2
20260906160415 67 322 3.5 10.4 0.00 0.02 0.02 68 1015.2
20260906155429 67 137 2.6 9.6 0.00 0.02 0.02 68 1015.3
20260906154416 66 124 2.6 11.3 0.00 0.02 0.02 67 1015.4
20260906153415 66 67 2.6 8.7 0.00 0.02 0.02 69 1015.3
20260906152412 66 46 3.5 12.2 0.00 0.02 0.02 72 1015.4
20260906151411 66 103 1.7 7.0 0.00 0.02 0.02 72 1015.2
20260906150423 66 290 1.7 12.2 0.00 0.02 0.02 73 1015.2
20260906145912 66 266 1.7 8.7 0.00 0.02 0.02 72 1015.3
20260906144414 66 148 2.6 11.3 0.00 0.02 0.02 71 1015.4
20260906144409 66 278 1.7 8.7 0.00 0.02 0.02 70 1015.3
20260906142910 66 103 1.7 8.7 0.00 0.02 0.02 73 1015.2
20260906141912 66 118 0.9 6.1 0.00 0.02 0.02 73 1015.3
20260906140410 66 94 2.6 11.3 0.00 0.02 0.02 73 1015.3
20260906135406 65 112 0.9 9.6 0.00 0.02 0.02 76 1015.2
20260906133909 64 253 0.0 2.6 0.00 0.02 0.02 72 1015.2
20260906132402 64 264 0.0 3.5 0.00 0.02 0.02 71 1015.2
20260906131403 63 101 0.0 1.7 0.00 0.02 0.02 70 1015.2
20260906130402 63 238 0.0 1.7 0.00 0.02 0.02 71 1015.1
20260906125415 63 306 0.0 0.9 0.00 0.02 0.02 71 1015.0
20260906124403 62 316 0.0 1.7 0.00 0.02 0.02 70 1015.0
20260906123402 62 322 0.0 2.6 0.00 0.02 0.02 68 1015.0
20260906122857 61 246 0.0 0.9 0.01 0.02 0.02 67 1014.9
20260906121357 61 231 0.0 0.9 0.02 0.02 0.02 66 1014.9
20260906120859 60 205 0.0 0.9 0.02 0.02 0.02 66 1014.8
20260906115356 60 205 0.0 0.0 0.02 0.02 0.02 66 1014.7
20260906114357 60 46 0.0 0.0 0.02 0.02 0.02 67 1014.5
20260906113358 60 93 0.0 0.0 0.02 0.02 0.02 68 1014.5
20260906112356 60 79 0.0 0.0 0.01 0.01 0.01 70 1014.6
20260906111356 60 65 0.0 0.0 0.00 0.00 0.00 71 1014.4
20260906110355 60 68 0.0 0.9 0.00 0.00 0.00 71 1014.2
20260906105351 60 68 0.0 0.0 0.00 0.00 0.00 72 1014.2
20260906104351 60 65 0.0 0.0 0.00 0.00 0.00 73 1014.1
20260906103350 61 75 0.0 0.0 0.00 0.00 0.00 74 1013.8
20260906102852 61 75 0.0 0.9 0.00 0.00 0.00 75 1013.6
20260906101350 61 78 0.0 2.6 0.00 0.00 0.00 75 1013.7
20260906100403 61 88 0.9 4.3 0.00 0.00 0.00 74 1013.6
20260906095350 61 86 0.0 1.7 0.00 0.00 0.00 71 1013.5
20260906094351 60 114 0.0 1.7 0.00 0.00 0.00 68 1013.6
20260906093351 60 42 0.0 1.7 0.00 0.00 0.00 66 1013.4
20260906092344 60 80 0.0 0.9 0.00 0.00 0.00 65 1013.2
20260906091344 60 58 0.0 0.0 0.00 0.00 0.00 65 1013.2
20260906090845 60 59 0.0 0.0 0.00 0.00 0.00 65 1013.0
20260906085346 60 58 0.0 0.0 0.00 0.00 0.00 64 1012.9
20260906084344 60 58 0.0 0.0 0.00 0.00 0.00 64 1012.9
20260906083845 60 75 0.0 0.0 0.00 0.00 0.00 64 1012.8
20260906082344 59 62 0.0 0.9 0.00 0.00 0.00 64 1012.7
20260906081346 60 200 0.0 0.0 0.00 0.00 0.00 64 1012.7
20260906080345 60 200 0.0 0.0 0.00 0.00 0.00 64 1012.7
20260906075339 60 200 0.0 0.0 0.00 0.00 0.00 64 1012.7
20260906074340 60 200 0.0 0.0 0.00 0.00 0.00 64 1012.6
20260906073339 60 200 0.0 0.0 0.00 0.00 0.00 64 1012.6
20260906072339 60 200 0.0 0.0 0.00 0.00 0.00 64 1012.6
20260906071338 60 200 0.0 0.0 0.00 0.00 0.00 64 1012.5
20260906070340 60 200 0.0 0.0 0.00 0.00 0.00 64 1012.5
20260906065339 60 200 0.0 0.0 0.00 0.00 0.00 64 1012.6
20260906064841 61 200 0.0 0.0 0.00 0.00 0.00 64 1012.6
20260906063338 61 200 0.0 0.0 0.00 0.00 0.00 65 1012.6
20260906062835 61 200 0.0 0.0 0.00 0.00 0.00 65 1012.6
20260906061333 61 200 0.0 0.0 0.00 0.00 0.00 65 1012.6
20260906060332 61 200 0.0 0.0 0.00 0.00 0.00 66 1012.6
20260906055333 61 232 0.0 0.9 0.00 0.00 0.00 66 1012.8
20260906054334 61 313 0.0 0.0 0.00 0.00 0.00 67 1012.9
20260906053337 62 314 0.0 0.0 0.00 0.00 0.00 67 1012.9
20260906052333 62 314 0.0 0.0 0.00 0.00 0.00 68 1013.0
20260906051334 62 314 0.0 0.0 0.00 0.00 0.00 68 1012.9
20260906050833 61 82 0.0 0.0 0.00 0.00 0.00 67 1013.0
20260906045327 61 80 0.0 0.0 0.00 0.00 0.00 66 1012.9
20260906044326 61 81 0.0 0.0 0.00 0.00 0.00 66 1012.8
20260906043327 61 80 0.0 0.0 0.00 0.00 0.00 66 1012.7
20260906042829 61 80 0.0 0.0 0.00 0.00 0.00 67 1012.7
20260906041828 61 80 0.0 0.0 0.00 0.00 0.00 67 1012.7
20260906040328 61 80 0.0 0.0 0.00 0.00 0.00 68 1012.6
20260906035827 61 80 0.0 0.0 0.00 0.00 0.00 68 1012.6
20260906034324 61 80 0.0 0.0 0.00 0.00 0.00 69 1012.6
20260906033323 61 81 0.0 0.0 0.00 0.00 0.00 70 1012.5
20260906032318 62 90 0.0 0.0 0.00 0.00 0.00 70 1012.5
20260906031318 62 90 0.0 0.0 0.00 0.00 0.00 70 1012.5
20260906030331 62 98 0.0 0.0 0.00 0.00 0.00 70 1012.5
20260906025321 62 99 0.0 0.0 0.00 0.00 0.00 70 1012.6
20260906024319 63 99 0.0 0.0 0.00 0.00 0.00 70 1012.6
20260906023318 63 99 0.0 0.0 0.00 0.00 0.00 71 1012.6
20260906022319 63 98 0.0 0.0 0.00 0.00 0.00 71 1012.6
20260906021318 63 98 0.0 0.0 0.00 0.00 0.00 72 1012.5
20260906020319 63 98 0.0 0.0 0.00 0.00 0.00 72 1012.5
20260906015316 63 49 0.0 0.0 0.00 0.00 0.00 72 1012.6
20260906014312 63 46 0.0 0.0 0.00 0.00 0.00 72 1012.7
20260906013314 63 46 0.0 0.0 0.00 0.00 0.00 72 1012.5
20260906012312 63 41 0.0 0.0 0.00 0.00 0.00 71 1012.3
20260906011313 63 41 0.0 0.0 0.00 0.00 0.00 71 1012.4
20260906010313 63 83 0.0 0.0 0.00 0.00 0.00 71 1012.3
20260906005312 62 84 0.0 0.0 0.00 0.00 0.00 72 1012.4
20260906004311 62 84 0.0 0.0 0.00 0.00 0.00 71 1012.3
20260906003810 62 83 0.0 0.0 0.00 0.00 0.00 70 1012.1
20260906002306 62 84 0.0 0.0 0.00 0.00 0.00 70 1012.3
20260906001304 62 84 0.0 0.0 0.00 0.00 0.00 71 1012.1
20260906000305 62 84 0.0 0.0 0.00 0.00 0.00 71 1012.1
20260905235306 62 83 0.0 0.0 0.00 0.00 0.00 72 1012.0
20260905234304 62 84 0.0 0.0 0.00 0.00 0.00 73 1011.9
20260905233810 62 83 0.0 0.0 0.00 0.00 0.00 73 1011.9
20260905232306 63 84 0.0 0.0 0.00 0.00 0.00 74 1011.9
20260905231307 63 84 0.0 0.0 0.00 0.00 0.00 75 1011.8
20260905230305 64 84 0.0 0.0 0.00 0.00 0.00 75 1011.9
20260905225259 64 82 0.0 0.9 0.00 0.00 0.00 76 1011.9
20260905224259 65 81 0.0 1.7 0.00 0.00 0.00 76 1011.9
20260905223800 65 97 0.0 1.7 0.00 0.00 0.00 76 1012.0
20260905223413 65 61 0.0 2.6 0.00 0.00 0.00 76 1012.0
20260905221300 65 97 0.0 1.7 0.00 0.00 0.00 76 1011.9
20260905220300 65 80 0.9 3.5 0.00 0.00 0.00 76 1011.7
20260905215259 65 176 0.9 3.5 0.00 0.00 0.00 76 1011.4
20260905214258 65 142 0.9 5.2 0.00 0.00 0.00 76 1011.3
20260905213259 66 95 1.7 7.0 0.00 0.00 0.00 76 1011.3
20260905212255 67 351 1.7 7.0 0.00 0.00 0.00 75 1011.0
20260905211254 67 46 3.5 9.6 0.00 0.00 0.00 75 1011.1
20260905210254 67 68 3.5 13.0 0.00 0.00 0.00 75 1011.0
20260905205252 67 80 2.6 12.2 0.00 0.00 0.00 75 1010.8
20260905204253 68 285 2.6 10.4 0.00 0.00 0.00 75 1010.8
20260905203253 68 117 2.6 9.6 0.00 0.00 0.00 75 1010.5
20260905202753 69 73 2.6 7.8 0.00 0.00 0.00 74 1010.5
20260905202408 69 81 1.7 7.0 0.00 0.00 0.00 74 1010.4
20260905200251 69 226 1.7 9.6 0.00 0.00 0.00 75 1010.4
20260905195250 69 4 0.9 6.1 0.00 0.00 0.00 75 1010.4
20260905194249 69 93 2.6 12.2 0.00 0.00 0.00 75 1010.3
20260905193251 69 74 1.7 6.1 0.00 0.00 0.00 75 1010.4
20260905192249 69 68 2.6 9.6 0.00 0.00 0.00 75 1010.5
20260905191249 70 265 2.6 9.6 0.00 0.00 0.00 75 1010.5